Weather History for Zagreb Pleso, Croatia

Change the Weather History Date:

Monday, December 31, 2012

  Actual Average Record
Temperature  
Mean Temperature 32 °F -  
Max Temperature 43 °F - - ()
Min Temperature 21 °F - - ()
Degree Days  
Heating Degree Days 33    
Moisture  
Dew Point 27 °F    
Average Humidity 89    
Maximum Humidity 100    
Minimum Humidity 64    
Precipitation  
Precipitation 0.00 in - - ()
Sea Level Pressure  
Sea Level Pressure 30.32 in    
Wind  
Wind Speed 2 mph ()    
Max Wind Speed 7 mph    
Max Gust Speed -    
Visibility 2.3 miles    
Events Fog    
T = Trace of Precipitation, MM = Missing Value Source: Averaged Metar Reports

Daily Weather History Graph

Daily Weather History Graph

Search for Another Location

Airport:

Trip Planner

Search our weather history database for the weather conditions in past years. The results will help you decide how hot, cold, wet, or windy it might be!

Date:

Astronomy

Dec. 31, 2012 Rise Set
Actual Time 7:36 AM CET 4:21 PM CET
Civil Twilight 7:02 AM CET 4:55 PM CET
Nautical Twilight 6:24 AM CET 5:33 PM CET
Astronomical Twilight 5:48 AM CET 6:09 PM CET
Moon 7:45 PM CET (12/31) 8:59 AM CET (12/31)
Length of Visible Light 9h 53m
Length of Day
8h 44m
Waning Gibbous, 92% of the Moon is Illuminated
Dec 31
Waning Gibbous
Jan 5
Last Quarter
Jan 11
New
Jan 19
First Quarter
Jan 27
Full

Hourly Weather History & Observations

Time (CET) Temp. Windchill Dew Point Humidity Pressure Visibility Wind Dir Wind Speed Gust Speed Precip Events Conditions
12:00 AM 26.6 °F 21.2 °F 24.8 °F 93% 30.36 in 1.9 mi WSW 4.6 mph - N/A   Mist
12:30 AM 24.8 °F 20.5 °F 23.0 °F 93% 30.36 in 1.9 mi WSW 3.5 mph - N/A   Mist
1:00 AM 24 °F - 23 °F 92% 30.41 in 2 mi WSW 2.2 mph - -   Mist
1:00 AM 24.8 °F - 23.0 °F 93% 30.36 in 1.9 mi WSW 2.3 mph - N/A   Mist
1:30 AM 23.0 °F - 23.0 °F 100% 30.36 in 1.9 mi SW 2.3 mph - N/A   Mist
2:00 AM 24.8 °F 19.1 °F 23.0 °F 93% 30.36 in 1.9 mi SSW 4.6 mph - N/A   Mist
2:30 AM 24.8 °F 19.1 °F 23.0 °F 93% 30.36 in 1.9 mi SSW 4.6 mph - N/A   Mist
3:00 AM 24.8 °F - 23.0 °F 93% 30.36 in 1.9 mi Variable 1.2 mph - N/A   Mist
3:30 AM 24.8 °F - 23.0 °F 93% 30.36 in 1.9 mi Calm Calm - N/A Fog Fog
4:00 AM 23 °F - 22 °F 95% 30.42 in 2 mi WSW 2.2 mph - -   Mist
4:00 AM 23.0 °F - 23.0 °F 100% 30.39 in 1.9 mi WSW 1.2 mph - N/A   Mist
4:30 AM 23.0 °F 18.4 °F 23.0 °F 100% 30.39 in 1.9 mi WSW 3.5 mph - N/A   Mist
5:00 AM 23.0 °F - 23.0 °F 100% 30.36 in 1.9 mi Variable 2.3 mph - N/A   Mist
5:30 AM 23.0 °F - 23.0 °F 100% 30.36 in 1.9 mi Calm Calm - N/A   Mist
6:00 AM 23.0 °F - 21.2 °F 93% 30.39 in 1.9 mi Calm Calm - N/A   Mist
6:30 AM 21.2 °F - 21.2 °F 100% 30.39 in 1.9 mi Calm Calm - N/A   Partly Cloudy
7:00 AM 22 °F - 20 °F 91% 30.43 in 2 mi WSW 2.2 mph - -   Mist
7:00 AM 21.2 °F - 21.2 °F 100% 30.39 in 1.9 mi WSW 1.2 mph - N/A   Partly Cloudy
7:30 AM 21.2 °F - 21.2 °F 100% 30.39 in 1.6 mi Calm Calm - N/A   Partly Cloudy
8:00 AM 23.0 °F - 23.0 °F 100% 30.39 in 1.2 mi WSW 2.3 mph - N/A Fog Patches of Fog
8:30 AM 24.8 °F - 23.0 °F 93% 30.39 in 1.2 mi SW 1.2 mph - N/A Fog Patches of Fog
9:00 AM 26.6 °F - 24.8 °F 93% 30.39 in 1.2 mi SW 2.3 mph - N/A Fog Patches of Fog
9:30 AM 28.4 °F 24.6 °F 26.6 °F 93% 30.39 in 1.6 mi SW 3.5 mph - N/A Fog Patches of Fog
10:00 AM 31 °F - 28 °F 83% 30.43 in 2 mi WSW 4.5 mph - -   Mist
10:00 AM 30.2 °F 26.7 °F 28.4 °F 93% 30.39 in 1.6 mi WSW 3.5 mph - N/A   Mist
10:30 AM 32.0 °F 26.4 °F 28.4 °F 87% 30.39 in 1.6 mi WSW 5.8 mph - N/A   Mist
11:00 AM 33.8 °F 28.6 °F 30.2 °F 87% 30.39 in 3.1 mi WSW 5.8 mph - N/A   Mist
11:30 AM 33.8 °F 27.7 °F 30.2 °F 87% 30.36 in 4.3 mi WSW 6.9 mph - N/A   Unknown
12:00 PM 35.6 °F 30.7 °F 30.2 °F 81% 30.36 in 5.0 mi West 5.8 mph - N/A   Unknown
12:30 PM 37.4 °F 33.8 °F 30.2 °F 75% 30.33 in 5.0 mi West 4.6 mph - N/A   Unknown
1:00 PM 38 °F - 32 °F 70% 30.35 in 5 mi West 4.5 mph - -   Mist
1:00 PM 37.4 °F 34.9 °F 32.0 °F 81% 30.33 in 5.0 mi West 3.5 mph - N/A   Unknown
1:30 PM 39.2 °F - 32.0 °F 75% 30.30 in 5.0 mi Variable 1.2 mph - N/A   Unknown
2:00 PM 41.0 °F - 32.0 °F 70% 30.30 in 5.0 mi Variable 1.2 mph - N/A   Unknown
2:30 PM 41.0 °F - 32.0 °F 70% 30.30 in 5.0 mi Variable 1.2 mph - N/A   Unknown
3:00 PM 42.8 °F - 33.8 °F 70% 30.30 in 5.0 mi Calm Calm - N/A   Unknown
3:30 PM 42.8 °F - 33.8 °F 70% 30.27 in 5.0 mi Calm Calm - N/A   Unknown
4:00 PM 40 °F - 32 °F 64% 30.30 in 5 mi Calm Calm - -   Mist
4:00 PM 39.2 °F - 32.0 °F 75% 30.27 in 5.0 mi Calm Calm - N/A   Unknown
4:30 PM 37.4 °F - 32.0 °F 81% 30.27 in 3.7 mi NNE 2.3 mph - N/A   Unknown
5:00 PM 35.6 °F - 30.2 °F 81% 30.27 in 3.1 mi Calm Calm - N/A   Mist
5:30 PM 33.8 °F - 30.2 °F 87% 30.24 in 2.5 mi ENE 2.3 mph - N/A   Mist
6:00 PM 32.0 °F 28.7 °F 30.2 °F 93% 30.24 in 2.5 mi NNE 3.5 mph - N/A   Mist
6:30 PM 30.2 °F - 28.4 °F 93% 30.24 in 1.9 mi ENE 2.3 mph - N/A   Mist
7:00 PM 30 °F - 28 °F 87% 30.27 in 2 mi Calm Calm - -   Mist
7:00 PM 30.2 °F - 28.4 °F 93% 30.24 in 1.6 mi Calm Calm - N/A   Mist
7:30 PM 28.4 °F 24.6 °F 26.6 °F 93% 30.24 in 0.6 mi NE 3.5 mph - N/A Fog Patches of Fog
8:00 PM 28.4 °F - 26.6 °F 93% 30.21 in 0.6 mi Variable 1.2 mph - N/A Fog Patches of Fog
8:30 PM 28.4 °F - 26.6 °F 93% 30.21 in 0.6 mi Calm Calm - N/A Fog Patches of Fog
9:00 PM 26.6 °F - 24.8 °F 93% 30.21 in 0.2 mi Calm Calm - N/A Fog Light Freezing Fog
9:30 PM 26.6 °F - 24.8 °F 93% 30.21 in 0.2 mi NNE 2.3 mph - N/A Fog Light Freezing Fog
10:00 PM 26 °F - 26 °F 98% 30.23 in 0 mi NNE 4.5 mph - - Fog Partial Fog
10:00 PM 26.6 °F 21.2 °F 26.6 °F 100% 30.18 in 0.1 mi NNE 4.6 mph - N/A Fog Light Freezing Fog
10:30 PM 24.8 °F - 24.8 °F 100% 30.18 in 0.4 mi Variable 1.2 mph - N/A Fog Light Freezing Fog
11:00 PM 23.0 °F - 23.0 °F 100% 30.18 in 0.6 mi ESE 2.3 mph - N/A Fog Patches of Fog
11:30 PM 26.6 °F 22.6 °F 24.8 °F 93% 30.18 in 0.5 mi East 3.5 mph - N/A Fog Patches of Fog